Creek Data

    Home     View Charts     View Raw Data     Messages

ID Distance Battery Voltage Battery Current Internal Temp Internal Humidity External Temp Solar Input rssi snr Time Stamp Record
36781 0.0 3.92 0 72 37 63 5.1 -77 8 04/03/2025 02:30 PM 18639
36780 0.0 3.92 0 71 37 62 5.1 -76 8 04/03/2025 02:15 PM 18638
36779 0.0 3.92 0 70 37 62 5.1 -79 8 04/03/2025 02:00 PM 18637
36778 15.1 3.92 0 69 37 62 5.1 -76 7 04/03/2025 01:45 PM 18636
36777 0.0 3.92 0 68 37 61 5.1 -74 8 04/03/2025 01:30 PM 18635
36776 15.2 3.92 0 67 38 60 5.1 -77 7 04/03/2025 01:15 PM 18634
36775 0.0 3.92 0 66 38 60 5.1 -79 8 04/03/2025 01:00 PM 18633
36774 0.0 3.93 0 65 38 60 5.1 -76 9 04/03/2025 12:45 PM 18632
36773 0.0 4.11 0 65 37 59 5.1 -77 8 04/03/2025 12:30 PM 18631
36772 15.2 3.92 0 64 38 58 5.1 -77 7 04/03/2025 12:15 PM 18630
36771 0.0 3.92 0 62 38 58 5.1 -77 9 04/03/2025 12:00 PM 18629
36770 0.0 3.92 0 62 38 57 5.1 -77 9 04/03/2025 11:45 AM 18628
36769 0.0 4.11 0 61 38 57 5.1 -77 8 04/03/2025 11:30 AM 18627
36768 0.0 3.92 0 60 37 57 5.1 -78 8 04/03/2025 11:15 AM 18626
36767 0.0 3.92 0 59 38 56 5.1 -78 8 04/03/2025 11:00 AM 18625
36766 0.0 3.92 0 57 37 55 5.1 -78 8 04/03/2025 10:45 AM 18624
36765 0.0 3.92 0 56 37 55 5.1 -79 8 04/03/2025 10:30 AM 18623
36764 0.0 3.92 0 55 37 54 5.1 -79 8 04/03/2025 10:15 AM 18622
36763 0.0 3.92 0 54 37 55 5.1 -82 9 04/03/2025 10:00 AM 18621
36762 0.0 3.92 5 53 37 54 5.1 -82 8 04/03/2025 09:45 AM 18620
36761 15.1 3.92 0 50 37 53 5.1 -82 8 04/03/2025 09:30 AM 18619
36760 15.0 3.92 0 49 37 53 5.1 -82 8 04/03/2025 09:15 AM 18618
36759 15.1 3.92 5 47 37 50 5.1 -82 7 04/03/2025 09:00 AM 18617
36758 15.1 3.92 0 46 37 50 5.1 -83 9 04/03/2025 08:45 AM 18616
36757 15.1 3.91 0 45 37 48 5.1 -83 7 04/03/2025 08:30 AM 18615